owner,sensor,date,latitude,longitude,vertical_datum,wind_speed,wind_to_direction,wind_speed_of_gust,qcFlag 
LUMCON,ioos:station:LUMCON:103:1,2007-08-01T00:00:00Z,30.1889,-90.1683,1.0,4.1,340.0,7.2,'11111222,11111222,11111222' 
LUMCON,ioos:station:LUMCON:103:1,2007-08-01T01:00:00Z,30.1889,-90.1683,1.0,2.6,300.0,4.1,'11111222,11111222,11111222' 
LUMCON,ioos:station:LUMCON:103:1,2007-08-01T02:00:00Z,30.1889,-90.1683,1.0,1.5,340.0,3.6,'11111222,11111222,11111222' 
LUMCON,ioos:station:LUMCON:103:1,2007-08-01T03:00:00Z,30.1889,-90.1683,1.0,1.0,10.0,3.6,'11111222,11111222,11111222' 
LUMCON,ioos:station:LUMCON:103:1,2007-08-01T04:00:00Z,30.1889,-90.1683,1.0,1.5,310.0,3.1,'11111222,11111222,11111222' 
LUMCON,ioos:station:LUMCON:103:1,2007-08-01T06:00:00Z,30.1889,-90.1683,1.0,2.1,290.0,3.1,'11111222,11111222,11111222' 
LUMCON,ioos:station:LUMCON:103:1,2007-08-01T08:00:00Z,30.1889,-90.1683,1.0,2.1,290.0,3.6,'11111222,11111222,11111222' 
LUMCON,ioos:station:LUMCON:103:1,2007-08-01T10:00:00Z,30.1889,-90.1683,1.0,2.1,320.0,3.1,'11111222,11111222,11111222' 
LUMCON,ioos:station:LUMCON:103:1,2007-08-01T14:00:00Z,30.1889,-90.1683,1.0,3.6,320.0,4.6,'11111222,11111222,11111222' 
LUMCON,ioos:station:LUMCON:103:1,2007-08-01T15:00:00Z,30.1889,-90.1683,1.0,3.1,330.0,4.6,'11111222,11111222,11111222' 
LUMCON,ioos:station:LUMCON:103:1,2007-08-01T16:00:00Z,30.1889,-90.1683,1.0,1.5,320.0,3.6,'11111222,11111222,11111222' 
LUMCON,ioos:station:LUMCON:103:1,2007-08-01T21:00:00Z,30.1889,-90.1683,1.0,4.1,230.0,7.2,'11111222,11111222,11111222' 
LUMCON,ioos:station:LUMCON:103:1,2007-08-01T22:00:00Z,30.1889,-90.1683,1.0,2.6,220.0,3.6,'11111222,11111222,11111222' 
LUMCON,ioos:station:LUMCON:103:1,2007-08-01T23:00:00Z,30.1889,-90.1683,1.0,7.2,330.0,9.3,'11111222,11111222,11111222' 
LUMCON,ioos:station:LUMCON:103:1,2007-08-02T02:00:00Z,30.1889,-90.1683,1.0,4.1,350.0,6.7,'11111222,11111222,11111222' 
LUMCON,ioos:station:LUMCON:103:1,2007-08-02T03:00:00Z,30.1889,-90.1683,1.0,2.6,340.0,3.6,'11111222,11111222,11111222' 
LUMCON,ioos:station:LUMCON:103:1,2007-08-02T04:00:00Z,30.1889,-90.1683,1.0,2.1,360.0,3.1,'11111222,11144222,11111222' 
LUMCON,ioos:station:LUMCON:103:1,2007-08-02T05:00:00Z,30.1889,-90.1683,1.0,3.1,0.0,4.6,'11111222,11111222,11111222' 
LUMCON,ioos:station:LUMCON:103:1,2007-08-02T06:00:00Z,30.1889,-90.1683,1.0,3.6,10.0,7.7,'11111222,11111222,11111222' 
LUMCON,ioos:station:LUMCON:103:1,2007-08-02T08:00:00Z,30.1889,-90.1683,1.0,2.6,10.0,4.1,'11111222,11111222,11111222' 
LUMCON,ioos:station:LUMCON:103:1,2007-08-02T12:00:00Z,30.1889,-90.1683,1.0,4.1,20.0,7.7,'11111222,11111222,11111222' 
LUMCON,ioos:station:LUMCON:103:1,2007-08-02T13:00:00Z,30.1889,-90.1683,1.0,4.1,40.0,7.7,'11111222,11111222,11111222' 
LUMCON,ioos:station:LUMCON:103:1,2007-08-02T14:00:00Z,30.1889,-90.1683,1.0,4.6,40.0,7.2,'11111222,11111222,11111222' 
LUMCON,ioos:station:LUMCON:103:1,2007-08-02T15:00:00Z,30.1889,-90.1683,1.0,4.6,60.0,6.2,'11111222,11111222,11111222' 
LUMCON,ioos:station:LUMCON:103:1,2007-08-02T16:00:00Z,30.1889,-90.1683,1.0,5.1,60.0,7.2,'11111222,11111222,11111222' 
LUMCON,ioos:station:LUMCON:103:1,2007-08-02T17:00:00Z,30.1889,-90.1683,1.0,4.1,80.0,6.2,'11111222,11111222,11111222' 
LUMCON,ioos:station:LUMCON:103:1,2007-08-02T18:00:00Z,30.1889,-90.1683,1.0,4.1,110.0,6.2,'11111222,11111222,11111222' 
LUMCON,ioos:station:LUMCON:103:1,2007-08-02T19:00:00Z,30.1889,-90.1683,1.0,4.1,110.0,8.2,'11111222,11111222,11111222' 
LUMCON,ioos:station:LUMCON:103:1,2007-08-02T20:00:00Z,30.1889,-90.1683,1.0,3.6,140.0,7.7,'11111222,11111222,11111222' 
LUMCON,ioos:station:LUMCON:103:1,2007-08-02T21:00:00Z,30.1889,-90.1683,1.0,3.6,140.0,6.7,'11111222,11111222,11111222' 
LUMCON,ioos:station:LUMCON:103:1,2007-08-02T22:00:00Z,30.1889,-90.1683,1.0,2.1,310.0,4.6,'11111222,11111222,11111222' 
LUMCON,ioos:station:LUMCON:103:1,2007-08-02T23:00:00Z,30.1889,-90.1683,1.0,1.5,230.0,2.6,'11111222,11111222,11111222' 
LUMCON,ioos:station:LUMCON:103:1,2007-08-03T00:00:00Z,30.1889,-90.1683,1.0,2.1,40.0,7.2,'11111222,11111222,11111222' 
LUMCON,ioos:station:LUMCON:103:1,2007-08-03T01:00:00Z,30.1889,-90.1683,1.0,2.6,70.0,3.6,'11111222,11111222,11111222' 
LUMCON,ioos:station:LUMCON:103:1,2007-08-03T02:00:00Z,30.1889,-90.1683,1.0,2.1,90.0,3.6,'11111222,11111222,11111222' 
LUMCON,ioos:station:LUMCON:103:1,2007-08-03T03:00:00Z,30.1889,-90.1683,1.0,2.1,40.0,4.6,'11111222,11111222,11111222' 
LUMCON,ioos:station:LUMCON:103:1,2007-08-03T04:00:00Z,30.1889,-90.1683,1.0,2.1,30.0,3.1,'11111222,11111222,11111222' 
LUMCON,ioos:station:LUMCON:103:1,2007-08-03T05:00:00Z,30.1889,-90.1683,1.0,3.1,40.0,5.1,'11111222,11111222,11111222' 
LUMCON,ioos:station:LUMCON:103:1,2007-08-03T06:00:00Z,30.1889,-90.1683,1.0,2.6,40.0,4.1,'11111222,11111222,11111222' 
LUMCON,ioos:station:LUMCON:103:1,2007-08-03T07:00:00Z,30.1889,-90.1683,1.0,2.6,40.0,4.6,'11111222,11111222,11111222' 
LUMCON,ioos:station:LUMCON:103:1,2007-08-03T08:00:00Z,30.1889,-90.1683,1.0,3.1,70.0,5.1,'11111222,11111222,11111222' 
LUMCON,ioos:station:LUMCON:103:1,2007-08-03T09:00:00Z,30.1889,-90.1683,1.0,2.1,40.0,3.1,'11111222,11111222,11111222' 
LUMCON,ioos:station:LUMCON:103:1,2007-08-03T10:00:00Z,30.1889,-90.1683,1.0,1.5,360.0,2.6,'11111222,11144222,11111222' 
LUMCON,ioos:station:LUMCON:103:1,2007-08-03T11:00:00Z,30.1889,-90.1683,1.0,2.6,330.0,3.6,'11111222,11111222,11111222' 
LUMCON,ioos:station:LUMCON:103:1,2007-08-03T12:00:00Z,30.1889,-90.1683,1.0,3.6,350.0,4.6,'11111222,11111222,11111222' 
LUMCON,ioos:station:LUMCON:103:1,2007-08-03T13:00:00Z,30.1889,-90.1683,1.0,3.1,350.0,4.1,'11111222,11111222,11111222' 
LUMCON,ioos:station:LUMCON:103:1,2007-08-03T14:00:00Z,30.1889,-90.1683,1.0,4.1,0.0,6.2,'11111222,11111222,11111222' 
LUMCON,ioos:station:LUMCON:103:1,2007-08-03T15:00:00Z,30.1889,-90.1683,1.0,4.1,20.0,6.2,'11111222,11111222,11111222' 
LUMCON,ioos:station:LUMCON:103:1,2007-08-03T16:00:00Z,30.1889,-90.1683,1.0,3.6,20.0,5.7,'11111222,11111222,11111222' 
LUMCON,ioos:station:LUMCON:103:1,2007-08-03T17:00:00Z,30.1889,-90.1683,1.0,3.6,30.0,5.7,'11111222,11111222,11111222' 
LUMCON,ioos:station:LUMCON:103:1,2007-08-03T18:00:00Z,30.1889,-90.1683,1.0,3.1,50.0,6.2,'11111222,11111222,11111222' 
LUMCON,ioos:station:LUMCON:103:1,2007-08-03T19:00:00Z,30.1889,-90.1683,1.0,3.1,100.0,6.2,'11111222,11111222,11111222' 
LUMCON,ioos:station:LUMCON:103:1,2007-08-03T20:00:00Z,30.1889,-90.1683,1.0,3.6,120.0,7.2,'11111222,11111222,11111222' 
LUMCON,ioos:station:LUMCON:103:1,2007-08-03T23:00:00Z,30.1889,-90.1683,1.0,6.2,130.0,7.7,'11111222,11111222,11111222' 
LUMCON,ioos:station:LUMCON:103:1,2007-08-04T00:00:00Z,30.1889,-90.1683,1.0,4.6,130.0,6.7,'11111222,11111222,11111222' 
LUMCON,ioos:station:LUMCON:103:1,2007-08-04T01:00:00Z,30.1889,-90.1683,1.0,4.1,130.0,5.7,'11111222,11111222,11111222' 
LUMCON,ioos:station:LUMCON:103:1,2007-08-04T02:00:00Z,30.1889,-90.1683,1.0,3.1,130.0,4.1,'11111222,11111222,11111222' 
LUMCON,ioos:station:LUMCON:103:1,2007-08-04T03:00:00Z,30.1889,-90.1683,1.0,3.6,140.0,5.1,'11111222,11111222,11111222' 
LUMCON,ioos:station:LUMCON:103:1,2007-08-04T04:00:00Z,30.1889,-90.1683,1.0,2.6,140.0,3.6,'11111222,11111222,11111222' 
LUMCON,ioos:station:LUMCON:103:1,2007-08-04T05:00:00Z,30.1889,-90.1683,1.0,3.1,140.0,5.1,'11111222,11111222,11111222' 
LUMCON,ioos:station:LUMCON:103:1,2007-08-04T06:00:00Z,30.1889,-90.1683,1.0,2.6,160.0,4.1,'11111222,11111222,11111222' 
LUMCON,ioos:station:LUMCON:103:1,2007-08-04T07:00:00Z,30.1889,-90.1683,1.0,3.1,180.0,5.1,'11111222,11111222,11111222' 
LUMCON,ioos:station:LUMCON:103:1,2007-08-04T18:00:00Z,30.1889,-90.1683,1.0,3.6,150.0,5.1,'11111222,11111222,11111222' 
LUMCON,ioos:station:LUMCON:103:1,2007-08-04T19:00:00Z,30.1889,-90.1683,1.0,2.6,130.0,4.6,'11111222,11111222,11111222' 
LUMCON,ioos:station:LUMCON:103:1,2007-08-04T20:00:00Z,30.1889,-90.1683,1.0,4.1,140.0,5.1,'11111222,11111222,11111222' 
LUMCON,ioos:station:LUMCON:103:1,2007-08-06T12:00:00Z,30.1889,-90.1683,1.0,2.6,310.0,4.1,'11111222,11111222,11111222' 
LUMCON,ioos:station:LUMCON:103:1,2007-08-06T13:00:00Z,30.1889,-90.1683,1.0,2.6,310.0,3.6,'11111222,11111222,11111222' 
LUMCON,ioos:station:LUMCON:103:1,2007-08-06T14:00:00Z,30.1889,-90.1683,1.0,3.1,280.0,4.6,'11111222,11111222,11111222' 
LUMCON,ioos:station:LUMCON:103:1,2007-08-06T15:00:00Z,30.1889,-90.1683,1.0,3.6,270.0,5.1,'11111222,11111222,11111222' 
LUMCON,ioos:station:LUMCON:103:1,2007-08-06T16:00:00Z,30.1889,-90.1683,1.0,2.1,260.0,4.1,'11111222,11111222,11111222' 
LUMCON,ioos:station:LUMCON:103:1,2007-08-06T17:00:00Z,30.1889,-90.1683,1.0,1.0,250.0,3.1,'11111222,11111222,11111222' 
LUMCON,ioos:station:LUMCON:103:1,2007-08-06T18:00:00Z,30.1889,-90.1683,1.0,2.6,220.0,5.7,'11111222,11111222,11111222' 
LUMCON,ioos:station:LUMCON:103:1,2007-08-06T19:00:00Z,30.1889,-90.1683,1.0,3.1,240.0,5.7,'11111222,11111222,11111222' 
LUMCON,ioos:station:LUMCON:103:1,2007-08-06T20:00:00Z,30.1889,-90.1683,1.0,4.1,230.0,8.8,'11111222,11111222,11111222' 
LUMCON,ioos:station:LUMCON:103:1,2007-08-06T21:00:00Z,30.1889,-90.1683,1.0,4.6,230.0,7.2,'11111222,11111222,11111222' 
LUMCON,ioos:station:LUMCON:103:1,2007-08-06T22:00:00Z,30.1889,-90.1683,1.0,4.1,240.0,6.2,'11111222,11111222,11111222' 
LUMCON,ioos:station:LUMCON:103:1,2007-08-06T23:00:00Z,30.1889,-90.1683,1.0,4.1,230.0,6.7,'11111222,11111222,11111222' 
LUMCON,ioos:station:LUMCON:103:1,2007-08-07T00:00:00Z,30.1889,-90.1683,1.0,4.1,240.0,6.7,'11111222,11111222,11111222' 
LUMCON,ioos:station:LUMCON:103:1,2007-08-07T01:00:00Z,30.1889,-90.1683,1.0,3.1,250.0,4.1,'11111222,11111222,11111222' 
LUMCON,ioos:station:LUMCON:103:1,2007-08-07T02:00:00Z,30.1889,-90.1683,1.0,2.6,230.0,3.6,'11111222,11111222,11111222' 
LUMCON,ioos:station:LUMCON:103:1,2007-08-07T03:00:00Z,30.1889,-90.1683,1.0,3.6,220.0,4.6,'11111222,11111222,11111222' 
LUMCON,ioos:station:LUMCON:103:1,2007-08-07T04:00:00Z,30.1889,-90.1683,1.0,3.1,240.0,4.1,'11111222,11111222,11111222' 
LUMCON,ioos:station:LUMCON:103:1,2007-08-07T05:00:00Z,30.1889,-90.1683,1.0,3.6,240.0,5.1,'11111222,11111222,11111222' 
LUMCON,ioos:station:LUMCON:103:1,2007-08-07T06:00:00Z,30.1889,-90.1683,1.0,3.6,250.0,5.1,'11111222,11111222,11111222' 
LUMCON,ioos:station:LUMCON:103:1,2007-08-07T07:00:00Z,30.1889,-90.1683,1.0,3.1,260.0,4.6,'11111222,11111222,11111222' 
LUMCON,ioos:station:LUMCON:103:1,2007-08-07T08:00:00Z,30.1889,-90.1683,1.0,3.1,250.0,4.6,'11111222,11111222,11111222' 
LUMCON,ioos:station:LUMCON:103:1,2007-08-07T09:00:00Z,30.1889,-90.1683,1.0,3.1,260.0,5.1,'11111222,11111222,11111222' 
LUMCON,ioos:station:LUMCON:103:1,2007-08-07T10:00:00Z,30.1889,-90.1683,1.0,3.1,280.0,4.1,'11111222,11111222,11111222' 
LUMCON,ioos:station:LUMCON:103:1,2007-08-07T11:00:00Z,30.1889,-90.1683,1.0,3.1,270.0,4.1,'11111222,11111222,11111222' 
LUMCON,ioos:station:LUMCON:103:1,2007-08-07T12:00:00Z,30.1889,-90.1683,1.0,3.1,280.0,4.1,'11111222,11111222,11111222' 
LUMCON,ioos:station:LUMCON:103:1,2007-08-07T13:00:00Z,30.1889,-90.1683,1.0,4.1,270.0,5.7,'11111222,11111222,11111222' 
LUMCON,ioos:station:LUMCON:103:1,2007-08-07T14:00:00Z,30.1889,-90.1683,1.0,5.1,280.0,7.7,'11111222,11111222,11111222' 
LUMCON,ioos:station:LUMCON:103:1,2007-08-07T15:00:00Z,30.1889,-90.1683,1.0,3.6,290.0,6.2,'11111222,11111222,11111222' 
LUMCON,ioos:station:LUMCON:103:1,2007-08-07T16:00:00Z,30.1889,-90.1683,1.0,2.6,300.0,4.1,'11111222,11111222,11111222' 
LUMCON,ioos:station:LUMCON:103:1,2007-08-07T17:00:00Z,30.1889,-90.1683,1.0,3.1,270.0,5.1,'11111222,11111222,11111222' 
LUMCON,ioos:station:LUMCON:103:1,2007-08-07T18:00:00Z,30.1889,-90.1683,1.0,2.6,200.0,5.1,'11111222,11111222,11111222' 
LUMCON,ioos:station:LUMCON:103:1,2007-08-07T19:00:00Z,30.1889,-90.1683,1.0,2.6,180.0,5.1,'11111222,11111222,11111222' 
LUMCON,ioos:station:LUMCON:103:1,2007-08-07T20:00:00Z,30.1889,-90.1683,1.0,3.6,260.0,6.2,'11111222,11111222,11111222' 
LUMCON,ioos:station:LUMCON:103:1,2007-08-07T21:00:00Z,30.1889,-90.1683,1.0,3.6,270.0,6.2,'11111222,11111222,11111222' 
LUMCON,ioos:station:LUMCON:103:1,2007-08-07T22:00:00Z,30.1889,-90.1683,1.0,3.6,270.0,6.2,'11111222,11111222,11111222' 
LUMCON,ioos:station:LUMCON:103:1,2007-08-07T23:00:00Z,30.1889,-90.1683,1.0,4.1,270.0,6.7,'11111222,11111222,11111222' 
LUMCON,ioos:station:LUMCON:103:1,2007-08-08T00:00:00Z,30.1889,-90.1683,1.0,3.6,280.0,5.1,'11111222,11111222,11111222' 
LUMCON,ioos:station:LUMCON:103:1,2007-08-08T01:00:00Z,30.1889,-90.1683,1.0,2.1,270.0,3.6,'11111222,11111222,11111222' 
LUMCON,ioos:station:LUMCON:103:1,2007-08-08T02:00:00Z,30.1889,-90.1683,1.0,2.1,270.0,3.1,'11111222,11111222,11111222' 
LUMCON,ioos:station:LUMCON:103:1,2007-08-08T03:00:00Z,30.1889,-90.1683,1.0,2.1,270.0,2.6,'11111222,11111222,11111222' 
LUMCON,ioos:station:LUMCON:103:1,2007-08-08T04:00:00Z,30.1889,-90.1683,1.0,2.6,260.0,3.1,'11111222,11111222,11111222' 
LUMCON,ioos:station:LUMCON:103:1,2007-08-08T05:00:00Z,30.1889,-90.1683,1.0,2.6,270.0,3.1,'11111222,11111222,11111222' 
LUMCON,ioos:station:LUMCON:103:1,2007-08-08T06:00:00Z,30.1889,-90.1683,1.0,3.1,270.0,4.1,'11111222,11111222,11111222' 
LUMCON,ioos:station:LUMCON:103:1,2007-08-08T07:00:00Z,30.1889,-90.1683,1.0,2.6,280.0,3.6,'11111222,11111222,11111222' 
LUMCON,ioos:station:LUMCON:103:1,2007-08-08T08:00:00Z,30.1889,-90.1683,1.0,3.6,280.0,4.6,'11111222,11111222,11111222' 
LUMCON,ioos:station:LUMCON:103:1,2007-08-08T09:00:00Z,30.1889,-90.1683,1.0,2.6,290.0,3.6,'11111222,11111222,11111222' 
LUMCON,ioos:station:LUMCON:103:1,2007-08-08T10:00:00Z,30.1889,-90.1683,1.0,2.6,310.0,4.1,'11111222,11111222,11111222' 
LUMCON,ioos:station:LUMCON:103:1,2007-08-08T11:00:00Z,30.1889,-90.1683,1.0,3.1,300.0,3.6,'11111222,11111222,11111222' 
LUMCON,ioos:station:LUMCON:103:1,2007-08-08T12:00:00Z,30.1889,-90.1683,1.0,3.1,320.0,4.1,'11111222,11111222,11111222' 
LUMCON,ioos:station:LUMCON:103:1,2007-08-08T13:00:00Z,30.1889,-90.1683,1.0,3.6,310.0,5.1,'11111222,11111222,11111222' 
LUMCON,ioos:station:LUMCON:103:1,2007-08-08T14:00:00Z,30.1889,-90.1683,1.0,4.1,320.0,5.7,'11111222,11111222,11111222' 
LUMCON,ioos:station:LUMCON:103:1,2007-08-08T15:00:00Z,30.1889,-90.1683,1.0,3.6,330.0,5.1,'11111222,11111222,11111222' 
LUMCON,ioos:station:LUMCON:103:1,2007-08-08T16:00:00Z,30.1889,-90.1683,1.0,2.6,340.0,4.6,'11111222,11111222,11111222' 
LUMCON,ioos:station:LUMCON:103:1,2007-08-08T17:00:00Z,30.1889,-90.1683,1.0,1.5,360.0,3.1,'11111222,11144222,11111222' 
LUMCON,ioos:station:LUMCON:103:1,2007-08-08T18:00:00Z,30.1889,-90.1683,1.0,2.1,210.0,3.6,'11111222,11111222,11111222' 
LUMCON,ioos:station:LUMCON:103:1,2007-08-08T19:00:00Z,30.1889,-90.1683,1.0,3.6,210.0,5.1,'11111222,11111222,11111222' 
LUMCON,ioos:station:LUMCON:103:1,2007-08-08T20:00:00Z,30.1889,-90.1683,1.0,3.1,250.0,5.7,'11111222,11111222,11111222' 
LUMCON,ioos:station:LUMCON:103:1,2007-08-08T21:00:00Z,30.1889,-90.1683,1.0,3.1,200.0,6.2,'11111222,11111222,11111222' 
LUMCON,ioos:station:LUMCON:103:1,2007-08-08T22:00:00Z,30.1889,-90.1683,1.0,3.1,200.0,5.7,'11111222,11111222,11111222' 
LUMCON,ioos:station:LUMCON:103:1,2007-08-08T23:00:00Z,30.1889,-90.1683,1.0,3.1,180.0,5.7,'11111222,11111222,11111222' 
LUMCON,ioos:station:LUMCON:103:1,2007-08-09T00:00:00Z,30.1889,-90.1683,1.0,3.6,340.0,6.7,'11111222,11111222,11111222' 
LUMCON,ioos:station:LUMCON:103:1,2007-08-09T01:00:00Z,30.1889,-90.1683,1.0,1.0,330.0,2.1,'11111222,11111222,11111222' 
LUMCON,ioos:station:LUMCON:103:1,2007-08-09T02:00:00Z,30.1889,-90.1683,1.0,1.0,180.0,2.1,'11111222,11111222,11111222' 
LUMCON,ioos:station:LUMCON:103:1,2007-08-09T03:00:00Z,30.1889,-90.1683,1.0,1.0,270.0,3.1,'11111222,11111222,11111222' 
LUMCON,ioos:station:LUMCON:103:1,2007-08-09T04:00:00Z,30.1889,-90.1683,1.0,1.5,240.0,2.6,'11111222,11111222,11111222' 
LUMCON,ioos:station:LUMCON:103:1,2007-08-09T05:00:00Z,30.1889,-90.1683,1.0,2.1,300.0,3.6,'11111222,11111222,11111222' 
LUMCON,ioos:station:LUMCON:103:1,2007-08-09T06:00:00Z,30.1889,-90.1683,1.0,2.1,250.0,3.1,'11111222,11111222,11111222' 
LUMCON,ioos:station:LUMCON:103:1,2007-08-09T07:00:00Z,30.1889,-90.1683,1.0,2.6,270.0,3.6,'11111222,11111222,11111222' 
LUMCON,ioos:station:LUMCON:103:1,2007-08-09T08:00:00Z,30.1889,-90.1683,1.0,2.6,290.0,4.1,'11111222,11111222,11111222' 
LUMCON,ioos:station:LUMCON:103:1,2007-08-09T09:00:00Z,30.1889,-90.1683,1.0,2.6,280.0,4.1,'11111222,11111222,11111222' 
LUMCON,ioos:station:LUMCON:103:1,2007-08-09T10:00:00Z,30.1889,-90.1683,1.0,2.6,300.0,3.6,'11111222,11111222,11111222' 
LUMCON,ioos:station:LUMCON:103:1,2007-08-09T11:00:00Z,30.1889,-90.1683,1.0,2.1,310.0,3.1,'11111222,11111222,11111222' 
LUMCON,ioos:station:LUMCON:103:1,2007-08-09T12:00:00Z,30.1889,-90.1683,1.0,2.6,310.0,3.6,'11111222,11111222,11111222' 
LUMCON,ioos:station:LUMCON:103:1,2007-08-09T13:00:00Z,30.1889,-90.1683,1.0,3.6,320.0,4.6,'11111222,11111222,11111222' 
LUMCON,ioos:station:LUMCON:103:1,2007-08-09T14:00:00Z,30.1889,-90.1683,1.0,3.1,320.0,4.6,'11111222,11111222,11111222' 
LUMCON,ioos:station:LUMCON:103:1,2007-08-09T15:00:00Z,30.1889,-90.1683,1.0,4.1,340.0,5.7,'11111222,11111222,11111222' 
LUMCON,ioos:station:LUMCON:103:1,2007-08-09T16:00:00Z,30.1889,-90.1683,1.0,2.6,340.0,3.6,'11111222,11111222,11111222' 
LUMCON,ioos:station:LUMCON:103:1,2007-08-09T17:00:00Z,30.1889,-90.1683,1.0,2.6,20.0,4.1,'11111222,11111222,11111222' 
LUMCON,ioos:station:LUMCON:103:1,2007-08-09T18:00:00Z,30.1889,-90.1683,1.0,1.5,80.0,3.1,'11111222,11111222,11111222' 
LUMCON,ioos:station:LUMCON:103:1,2007-08-09T19:00:00Z,30.1889,-90.1683,1.0,2.6,190.0,4.1,'11111222,11111222,11111222' 
LUMCON,ioos:station:LUMCON:103:1,2007-08-09T20:00:00Z,30.1889,-90.1683,1.0,3.6,160.0,5.1,'11111222,11111222,11111222' 
LUMCON,ioos:station:LUMCON:103:1,2007-08-09T21:00:00Z,30.1889,-90.1683,1.0,3.1,190.0,4.1,'11111222,11111222,11111222' 
LUMCON,ioos:station:LUMCON:103:1,2007-08-09T22:00:00Z,30.1889,-90.1683,1.0,3.1,310.0,4.6,'11111222,11111222,11111222' 
LUMCON,ioos:station:LUMCON:103:1,2007-08-09T23:00:00Z,30.1889,-90.1683,1.0,2.1,150.0,4.1,'11111222,11111222,11111222' 
LUMCON,ioos:station:LUMCON:103:1,2007-08-10T00:00:00Z,30.1889,-90.1683,1.0,2.6,330.0,5.1,'11111222,11111222,11111222' 
LUMCON,ioos:station:LUMCON:103:1,2007-08-10T01:00:00Z,30.1889,-90.1683,1.0,3.6,310.0,4.6,'11111222,11111222,11111222' 
LUMCON,ioos:station:LUMCON:103:1,2007-08-10T02:00:00Z,30.1889,-90.1683,1.0,2.1,330.0,2.6,'11111222,11111222,11111222' 
LUMCON,ioos:station:LUMCON:103:1,2007-08-10T03:00:00Z,30.1889,-90.1683,1.0,1.0,240.0,2.1,'11111222,11111222,11111222' 
LUMCON,ioos:station:LUMCON:103:1,2007-08-10T04:00:00Z,30.1889,-90.1683,1.0,1.5,190.0,2.6,'11111222,11111222,11111222' 
LUMCON,ioos:station:LUMCON:103:1,2007-08-10T05:00:00Z,30.1889,-90.1683,1.0,3.1,210.0,3.6,'11111222,11111222,11111222' 
LUMCON,ioos:station:LUMCON:103:1,2007-08-10T06:00:00Z,30.1889,-90.1683,1.0,2.1,250.0,3.1,'11111222,11111222,11111222' 
LUMCON,ioos:station:LUMCON:103:1,2007-08-10T07:00:00Z,30.1889,-90.1683,1.0,2.1,230.0,3.1,'11111222,11111222,11111222' 
LUMCON,ioos:station:LUMCON:103:1,2007-08-10T08:00:00Z,30.1889,-90.1683,1.0,2.6,280.0,4.1,'11111222,11111222,11111222' 
LUMCON,ioos:station:LUMCON:103:1,2007-08-10T09:00:00Z,30.1889,-90.1683,1.0,2.1,290.0,4.1,'11111222,11111222,11111222' 
LUMCON,ioos:station:LUMCON:103:1,2007-08-10T10:00:00Z,30.1889,-90.1683,1.0,3.1,300.0,4.1,'11111222,11111222,11111222' 
LUMCON,ioos:station:LUMCON:103:1,2007-08-10T11:00:00Z,30.1889,-90.1683,1.0,2.6,320.0,3.6,'11111222,11111222,11111222' 
LUMCON,ioos:station:LUMCON:103:1,2007-08-10T12:00:00Z,30.1889,-90.1683,1.0,2.6,330.0,3.6,'11111222,11111222,11111222' 
LUMCON,ioos:station:LUMCON:103:1,2007-08-10T13:00:00Z,30.1889,-90.1683,1.0,3.6,340.0,4.6,'11111222,11111222,11111222' 
LUMCON,ioos:station:LUMCON:103:1,2007-08-10T14:00:00Z,30.1889,-90.1683,1.0,4.6,350.0,6.7,'11111222,11111222,11111222' 
LUMCON,ioos:station:LUMCON:103:1,2007-08-10T15:00:00Z,30.1889,-90.1683,1.0,3.6,350.0,4.6,'11111222,11111222,11111222' 
LUMCON,ioos:station:LUMCON:103:1,2007-08-10T16:00:00Z,30.1889,-90.1683,1.0,4.1,260.0,5.1,'11111222,11111222,11111222' 
LUMCON,ioos:station:LUMCON:103:1,2007-08-10T17:00:00Z,30.1889,-90.1683,1.0,5.1,110.0,8.2,'11111222,11111222,11111222' 
LUMCON,ioos:station:LUMCON:103:1,2007-08-10T18:00:00Z,30.1889,-90.1683,1.0,2.1,160.0,5.1,'11111222,11111222,11111222' 
LUMCON,ioos:station:LUMCON:103:1,2007-08-10T20:00:00Z,30.1889,-90.1683,1.0,5.7,230.0,99.0,'11111222,11111222,11144222' 
LUMCON,ioos:station:LUMCON:103:1,2007-08-10T21:00:00Z,30.1889,-90.1683,1.0,4.1,210.0,8.2,'11111222,11111222,11111222' 
LUMCON,ioos:station:LUMCON:103:1,2007-08-10T22:00:00Z,30.1889,-90.1683,1.0,4.1,230.0,6.7,'11111222,11111222,11111222' 
LUMCON,ioos:station:LUMCON:103:1,2007-08-10T23:00:00Z,30.1889,-90.1683,1.0,3.6,240.0,6.2,'11111222,11111222,11111222' 
LUMCON,ioos:station:LUMCON:103:1,2007-08-11T00:00:00Z,30.1889,-90.1683,1.0,2.6,260.0,3.6,'11111222,11111222,11111222' 
LUMCON,ioos:station:LUMCON:103:1,2007-08-11T01:00:00Z,30.1889,-90.1683,1.0,2.6,260.0,3.6,'11111222,11111222,11111222' 
LUMCON,ioos:station:LUMCON:103:1,2007-08-11T02:00:00Z,30.1889,-90.1683,1.0,2.1,270.0,4.6,'11111222,11111222,11111222' 
LUMCON,ioos:station:LUMCON:103:1,2007-08-11T03:00:00Z,30.1889,-90.1683,1.0,3.6,260.0,5.7,'11111222,11111222,11111222' 
LUMCON,ioos:station:LUMCON:103:1,2007-08-11T05:00:00Z,30.1889,-90.1683,1.0,2.6,220.0,3.6,'11111222,11111222,11111222' 
LUMCON,ioos:station:LUMCON:103:1,2007-08-11T06:00:00Z,30.1889,-90.1683,1.0,3.1,240.0,4.1,'11111222,11111222,11111222' 
LUMCON,ioos:station:LUMCON:103:1,2007-08-11T07:00:00Z,30.1889,-90.1683,1.0,3.6,240.0,5.7,'11111222,11111222,11111222' 
LUMCON,ioos:station:LUMCON:103:1,2007-08-11T09:00:00Z,30.1889,-90.1683,1.0,2.6,260.0,4.1,'11111222,11111222,11111222' 
LUMCON,ioos:station:LUMCON:103:1,2007-08-11T10:00:00Z,30.1889,-90.1683,1.0,3.1,260.0,4.6,'11111222,11111222,11111222' 
LUMCON,ioos:station:LUMCON:103:1,2007-08-11T11:00:00Z,30.1889,-90.1683,1.0,3.1,270.0,4.1,'11111222,11111222,11111222' 
LUMCON,ioos:station:LUMCON:103:1,2007-08-11T12:00:00Z,30.1889,-90.1683,1.0,3.6,270.0,5.1,'11111222,11111222,11111222' 
LUMCON,ioos:station:LUMCON:103:1,2007-08-11T14:00:00Z,30.1889,-90.1683,1.0,3.1,310.0,4.6,'11111222,11111222,11111222' 
LUMCON,ioos:station:LUMCON:103:1,2007-08-11T15:00:00Z,30.1889,-90.1683,1.0,3.6,310.0,5.7,'11111222,11111222,11111222' 
LUMCON,ioos:station:LUMCON:103:1,2007-08-11T16:00:00Z,30.1889,-90.1683,1.0,2.6,0.0,4.6,'11111222,11111222,11111222' 
LUMCON,ioos:station:LUMCON:103:1,2007-08-11T18:00:00Z,30.1889,-90.1683,1.0,2.6,200.0,4.6,'11111222,11111222,11111222' 
LUMCON,ioos:station:LUMCON:103:1,2007-08-11T19:00:00Z,30.1889,-90.1683,1.0,2.6,200.0,5.1,'11111222,11111222,11111222' 
LUMCON,ioos:station:LUMCON:103:1,2007-08-11T20:00:00Z,30.1889,-90.1683,1.0,2.6,200.0,5.7,'11111222,11111222,11111222' 
LUMCON,ioos:station:LUMCON:103:1,2007-08-11T21:00:00Z,30.1889,-90.1683,1.0,3.1,150.0,8.2,'11111222,11111222,11111222' 
LUMCON,ioos:station:LUMCON:103:1,2007-08-11T22:00:00Z,30.1889,-90.1683,1.0,4.1,210.0,7.7,'11111222,11111222,11111222' 
LUMCON,ioos:station:LUMCON:103:1,2007-08-11T23:00:00Z,30.1889,-90.1683,1.0,3.6,230.0,7.2,'11111222,11111222,11111222' 
LUMCON,ioos:station:LUMCON:103:1,2007-08-12T00:00:00Z,30.1889,-90.1683,1.0,4.1,220.0,6.7,'11111222,11111222,11111222' 
LUMCON,ioos:station:LUMCON:103:1,2007-08-12T01:00:00Z,30.1889,-90.1683,1.0,3.1,240.0,5.7,'11111222,11111222,11111222' 
LUMCON,ioos:station:LUMCON:103:1,2007-08-12T02:00:00Z,30.1889,-90.1683,1.0,2.6,260.0,4.1,'11111222,11111222,11111222' 
LUMCON,ioos:station:LUMCON:103:1,2007-08-12T03:00:00Z,30.1889,-90.1683,1.0,2.6,290.0,3.1,'11111222,11111222,11111222' 
LUMCON,ioos:station:LUMCON:103:1,2007-08-12T04:00:00Z,30.1889,-90.1683,1.0,2.6,300.0,4.1,'11111222,11111222,11111222' 
LUMCON,ioos:station:LUMCON:103:1,2007-08-12T05:00:00Z,30.1889,-90.1683,1.0,3.1,290.0,5.1,'11111222,11111222,11111222' 
LUMCON,ioos:station:LUMCON:103:1,2007-08-12T06:00:00Z,30.1889,-90.1683,1.0,3.6,290.0,6.2,'11111222,11111222,11111222' 
LUMCON,ioos:station:LUMCON:103:1,2007-08-12T07:00:00Z,30.1889,-90.1683,1.0,3.1,290.0,4.1,'11111222,11111222,11111222' 
LUMCON,ioos:station:LUMCON:103:1,2007-08-12T08:00:00Z,30.1889,-90.1683,1.0,3.1,290.0,4.6,'11111222,11111222,11111222' 